Content
SEND FEEDBACK

Daily
Averages
Monthly
Summary
United States of America

HAZELWOOD, MISSOURI


Home > North America > United States > Missouri
Elevation: 570 feet     Latitude: 38 45N     Longitude: 090 22W

WEATHER
 
SELECT A DAY
Number of Records: 199,638;   Date Range: 1/1/95 - 10/20/14
 
SHARE

PRINT THIS DATA

[ ← Previous Day ]
WEATHER ALMANAC - MARCH 13, 2013
[ Next Day → ]
[ °C ]   °F
Weather ElementAverageHighLow
Temperature33.1 °F41 °F (1:54 pm)26.1 °F (10:54 pm)
Dewpoint17.9 °F23 °F (2:54 am)14 °F (8:54 am)
Humidity55.3 %78 % (10:54 pm)36 % (3:54 pm)
Barometer30.38 in30.45 in (12:54 pm)30.25 in (1:54 am)
Wind Speed10.2 mph18.4 mph (1:54 am)
Wind Gust26.5 mph (2:54 am)
Weather ElementAverage
Visibility9.9 mi
Wind DirectionWSW (247.5 °)

Weather ElementTotal
Precipitation---
Heating Degree Days31.5 (Base 65)
Averaged from 24 records on March 13, 2013
WEATHER CONDITIONS BREAKOUT
WIND DIRECTION BREAKOUT
WEATHER BY HOUR - MARCH 13, 2013
[ °C ]   °F
Local TimeTemperatureDewpointHumidityBarometerVisibilityWind DirectionWind SpeedGust SpeedPrecipitationEventsConditions
1:54 AM33.1 °F21.0 °F61 %30.25 in10.0 miWNW (300°)18.4 mph24.2 mph0.00 inOvercast
2:54 AM30.9 °F23.0 °F72 %30.27 in7.0 miNW (320°)15.0 mph26.5 mph0.00 inSnowLight Snow
3:12 AM30.2 °F19.4 °F64 %30.25 in10.0 miNW (310°)12.7 mph21.9 mph0.00 inMostly Cloudy
3:54 AM28.9 °F17.1 °F61 %30.27 in10.0 miNW (310°)12.7 mph20.7 mph0.00 inPartly Cloudy
4:54 AM30.0 °F17.1 °F59 %30.28 in10.0 miWNW (300°)8.1 mphOvercast
5:54 AM30.0 °F19.0 °F64 %30.30 in10.0 miWNW (290°)6.9 mphOvercast
6:54 AM28.9 °F17.1 °F61 %30.33 in10.0 miNW (320°)13.8 mphMostly Cloudy
7:54 AM28.9 °F17.1 °F61 %30.35 in10.0 miNW (310°)12.7 mphScattered Clouds
8:54 AM30.0 °F14.0 °F51 %30.38 in10.0 miNW (320°)16.1 mph25.3 mphScattered Clouds
9:54 AM32.0 °F15.1 °F50 %30.40 in10.0 miWNW (300°)17.3 mph25.3 mphPartly Cloudy
10:54 AM33.1 °F15.1 °F48 %30.42 in10.0 miNW (310°)17.3 mph21.9 mphScattered Clouds
11:54 AM36.0 °F16.0 °F44 %30.44 in10.0 miNW (310°)12.7 mph24.2 mphScattered Clouds
12:54 PM37.0 °F16.0 °F42 %30.45 in10.0 miNNW (330°)12.7 mph24.2 mphScattered Clouds
1:54 PM41.0 °F18.0 °F40 %30.44 in10.0 miWNW (300°)18.4 mph26.5 mphClear
2:54 PM41.0 °F17.1 °F38 %30.43 in10.0 miNW (320°)18.4 mph23.0 mphPartly Cloudy
3:54 PM41.0 °F16.0 °F36 %30.43 in10.0 miNW (320°)10.4 mphPartly Cloudy
4:54 PM41.0 °F16.0 °F36 %30.42 in10.0 miNNW (340°)9.2 mphClear
5:54 PM41.0 °F16.0 °F36 %30.41 in10.0 miNW (320°)5.8 mphClear
6:54 PM37.9 °F18.0 °F45 %30.42 in10.0 miNW (310°)6.9 mphClear
7:54 PM32.0 °F19.9 °F61 %30.42 in10.0 miCalmClear
8:54 PM28.9 °F21.0 °F72 %30.43 in10.0 miCalmClear
9:54 PM30.0 °F21.0 °F69 %30.44 in10.0 miCalmClear
10:54 PM26.1 °F19.9 °F78 %30.44 in10.0 miCalmClear
11:54 PM26.1 °F19.9 °F78 %30.43 in10.0 miCalmClear
Hourly data recorded from KSUS, located miles away from Hazelwood, Missouri







STORIES FROM OUR PARTNERS